This is the latest recevied weather packets stored in our database for station/object KC4JIR. If no packets are shown the sender has not sent any weather packets the latest 10 day(s).
| Time | Temp. | Humidity | Pressure | Rain* | Wind** | Luminosity | Snow |
|---|---|---|---|---|---|---|---|
| 1788382269 | 36.67° C | 49% | 1013.5 hPa | 0 mm | - | 378 W/m² | - |
| 1788381968 | 36.67° C | 48% | 1013.9 hPa | 0 mm | - | 365 W/m² | - |
| 1788381663 | 36.11° C | 52% | 1013.9 hPa | 0 mm | - | 437 W/m² | - |
| 1788381359 | 36.67° C | 51% | 1014 hPa | 0 mm | - | 491 W/m² | - |
| 1788381058 | 36.67° C | 48% | 1014 hPa | 0 mm | - | 496 W/m² | - |
| 1788380754 | 36.67° C | 50% | 1014.1 hPa | 0 mm | - | 484 W/m² | - |
| 1788380451 | 36.67° C | 47% | 1014.1 hPa | 0 mm | - | 517 W/m² | - |
| 1788380146 | 35.56° C | 55% | 1014.1 hPa | 0 mm | - | 514 W/m² | - |
| 1788379845 | 36.11° C | 54% | 1014 hPa | 0 mm | - | 536 W/m² | - |
| 1788379540 | 35.56° C | 54% | 1014.1 hPa | 0 mm | - | 545 W/m² | - |
| 1788379237 | 35.56° C | 54% | 1014.5 hPa | 0 mm | - | 547 W/m² | - |
| 1788378932 | 35.56° C | 57% | 1014.4 hPa | 0 mm | - | 559 W/m² | - |
| 1788378630 | 36.11° C | 56% | 1014.2 hPa | 0 mm | - | 552 W/m² | - |
| 1788378325 | 35° C | 58% | 1014.4 hPa | 0 mm | - | 570 W/m² | - |
| 1788378020 | 35° C | 57% | 1014.6 hPa | 0 mm | - | 587 W/m² | - |
| 1788377716 | 35.56° C | 58% | 1014.7 hPa | 0 mm | - | 586 W/m² | - |
| 1788377434 | 35.56° C | 60% | 1014.9 hPa | 0 mm | - | 533 W/m² | - |
| 1788377114 | 35° C | 59% | 1014.8 hPa | 0 mm | - | 565 W/m² | - |
| 1788376813 | 35° C | 56% | 1014.7 hPa | 0 mm | - | 641 W/m² | - |
| 1788376509 | 34.44° C | 60% | 1014.8 hPa | 0 mm | - | 642 W/m² | - |
| 1788376203 | 33.89° C | 66% | 1015 hPa | 0 mm | - | 474 W/m² | - |
| 1788375898 | 33.89° C | 61% | 1015.1 hPa | 0 mm | - | 336 W/m² | - |
| 1788375594 | 33.89° C | 59% | 1014.9 hPa | 0 mm | - | 271 W/m² | - |
| 1788375290 | 34.44° C | 61% | 1015.3 hPa | 0 mm | - | 293 W/m² | - |
| 1788374985 | 33.89° C | 63% | 1015.1 hPa | 0 mm | - | 403 W/m² | - |
* Rain latest hour (hover to see other rain measurements)
** Current wind speed in m/s (hover to see current wind gust speed)